[[{"header":{"parameterUnit":"m.s-1","parameterCategory":2,"la1":30.2991,"la2":30.254,"lo1":-89.0895,"lo2":-89.0444,"dy":0.0017,"dx":0.0017,"nx":28,"ny":28,"refTime":"2024-06-27T03:00:00:Z","depth":"0","parameterNumber":2,"parameterNumberName":"U-component_of_CURRENTS"},"data":[0,0,0,0,0,0,0,0,0,0,0,0,0,0,0,0,0,0,0,0,0,0,0,0,0,0,0,0,0,0,0,0,0,0,0,0,0,0,0,0,0,0,0,0,0,0,0,0,0,0,0,0,0,0,0,0,0,0,0.218,0.2181,0,0.2217,0.2217,0.2217,0.2252,0.2253,0.2254,0.2254,0.2308,0.2309,0.2309,0,0,0,0,0,0,0,0,0,0,0,0,0,0.2145,0.2145,0.218,0.2181,0.2182,0.2217,0.2217,0.2217,0.2252,0.2253,0.2254,0.2255,0.2308,0.2309,0.2309,0,0,0,0,0,0,0,0,0,0,0,0,0,0.2165,0.2145,0.218,0.2207,0.221,0.2217,0.2217,0.2217,0.2252,0.2253,0.2254,0.2255,0.2308,0.2309,0.231,0.2291,0,0,0.2313,0.2313,0,0,0,0,0,0,0,0,0.2164,0.2165,0.2202,0.2205,0.2208,0.2235,0.2224,0.2244,0.2251,0.2231,0.2254,0.2256,0.2287,0.229,0.2288,0.2293,0.2295,0.2313,0.2313,0.2314,0.2314,0,0,0,0,0,0,0,0.2162,0.2164,0.2191,0.2203,0.2207,0.2219,0.2222,0.2228,0.2249,0.2233,0.2237,0.2247,0.2289,0.2286,0.2289,0.2296,0.2313,0.2313,0.2314,0.2314,0.2336,0.2336,0,0,0,0,0,0,0.2165,0.2163,0.2189,0.2192,0.2193,0.2218,0.2222,0.2222,0.2248,0.2255,0.2246,0.2249,0.2284,0.2288,0.2291,0.2366,0.2314,0.2315,0.2315,0.2336,0.2336,0.2336,0,0,0,0,0,0,0.2163,0.2166,0.2188,0.2182,0.2187,0.2218,0.2217,0.2222,0.2226,0.2259,0.2265,0.2247,0.2285,0.229,0.2297,0.2365,0.2315,0.2316,0.2336,0.2336,0.2336,0.2455,0,0,0,0,0,0,0.2162,0.2165,0.2167,0.2182,0.2187,0.2193,0.2216,0.2222,0.2233,0.2236,0.2261,0.2267,0.2287,0.2295,0.2298,0.2366,0.2317,0.2336,0.2336,0.2336,0.2451,0.2459,0.2465,0,0,0,0,0,0.216,0.2166,0.2166,0.217,0.2187,0.2193,0.2196,0.222,0.2231,0.2229,0.2245,0.2267,0.2298,0.2295,0.2298,0.2369,0.2336,0.2336,0.2336,0.2447,0.2457,0.2465,0,0,0,0,0,0,0.2162,0.2171,0.2171,0.2182,0.2184,0.2201,0.2208,0.2216,0.2224,0.223,0.2256,0.2262,0.2299,0.229,0.2286,0.2366,0.2325,0.2325,0.2408,0.2417,0.2425,0.2467,0.2317,0,0,0,0,0,0.2158,0.2164,0.2167,0.2178,0.2174,0.2185,0.2192,0.2201,0.2213,0.2218,0.2243,0.2264,0.2297,0.232,0.2329,0.2364,0.2395,0.2408,0.2416,0.2422,0.2453,0.2537,0.2557,0.2336,0.2336,0.2336,0,0,0.2169,0.2172,0.2179,0.2178,0.2181,0.2197,0.2191,0.2197,0.2239,0.2221,0.2278,0.2281,0.2303,0.2355,0.2373,0.2364,0.2498,0.2422,0.2429,0.2457,0.2539,0.2562,0.2582,0.2336,0.2336,0.2336,0,0,0.2198,0.2182,0.2197,0.2194,0.2195,0.2202,0.2202,0.2211,0.2241,0.227,0.2289,0.2329,0.2354,0.2414,0.2443,0.2485,0.2523,0.2479,0.2579,0.2659,0.268,0.2699,0.277,0.2794,0.25,0.25,0.25,0,0.221,0.2225,0.2203,0.2214,0.2226,0.2207,0.2229,0.2257,0.2278,0.2318,0.2299,0.239,0.2402,0.2519,0.2544,0.2516,0.2553,0.2556,0.2677,0.2696,0.2713,0.2782,0.2807,0.2506,0.2505,0.2504,0.2504,0,0.2251,0.2259,0.2263,0.2276,0.2283,0.2288,0.2314,0.2336,0.2359,0.2401,0.249,0.2512,0.2575,0.2592,0.2592,0.2728,0.2712,0.2671,0.2672,0.2744,0.2809,0.2834,0.2514,0.2512,0.251,0.2509,0,0,0.2273,0.2292,0.2291,0.2297,0.2309,0.2309,0.2383,0.2442,0.2496,0.2548,0.2651,0.2728,0.274,0.277,0.2784,0.287,0.3022,0.2835,0.2836,0.2939,0.3208,0.3176,0.3199,0.3009,0.3014,0.3017,0.3208,0,0.2307,0.2341,0.2351,0.2382,0.2388,0.2399,0.2463,0.2517,0.2571,0.2659,0.2746,0.2825,0.2813,0.2847,0.294,0.2987,0.309,0.2975,0.3095,0.3099,0.309,0.3228,0.3016,0.3166,0.3232,0.3236,0.3239,0,0.2331,0.2348,0.2388,0.2414,0.2419,0.2444,0.2512,0.2571,0.2698,0.2748,0.2866,0.2917,0.3076,0.3025,0.3224,0.3149,0.3203,0.3242,0.3249,0.3202,0.3113,0.31,0.3208,0.3164,0.3276,0.3273,0.3271,0,0.2323,0.2363,0.2394,0.24,0.2439,0.2469,0.25,0.2597,0.2651,0.2815,0.2867,0.3051,0.3133,0.3253,0.3344,0.3297,0.3541,0.3472,0.3509,0.3506,0.3342,0.3317,0.3451,0.3633,0.3633,0.3632,0.3632,0,0.2332,0.2339,0.2384,0.2386,0.2411,0.2454,0.2505,0.2567,0.2682,0.276,0.2905,0.3007,0.3193,0.334,0.3412,0.3555,0.3603,0.3581,0.3577,0.3372,0.3349,0.3312,0.3271,0.3639,0.3638,0.3636,0.3635,0,0.2284,0.2329,0.2336,0.2383,0.2396,0.2402,0.246,0.2507,0.2619,0.2731,0.2792,0.3012,0.3215,0.3382,0.3591,0.363,0.3671,0.3791,0.3542,0.3507,0.348,0.3451,0.3446,0.337,0.3884,0.3884,0.3885,0,0.2255,0.2263,0.2298,0.2299,0.2309,0.2335,0.2358,0.2461,0.2526,0.2723,0.2788,0.3027,0.3178,0.3488,0.3617,0.3791,0.3697,0.3702,0.3582,0.3513,0.3479,0.3322,0.3246,0.3409,0.3405,0.3402,0.34,0,0.2183,0.2199,0.221,0.2219,0.2232,0.2249,0.2305,0.2336,0.2483,0.2574,0.2734,0.2868,0.3175,0.33,0.3549,0.3615,0.3512,0.3652,0.3642,0.3201,0.2977,0.2886,0.3251,0.3376,0.3378,0.338,0.3381,0.3382,0.2115,0.2109,0.2141,0.2132,0.214,0.2158,0.2152,0.223,0.23,0.2416,0.2611,0.2746,0.2986,0.3305,0.3358,0.3376,0.3384,0.331,0.3311,0.3184,0.3019,0.3351,0.3427,0.343,0.3432,0.3434,0.3436,0,0.2061,0.2075,0.2058,0.2059,0.2021,0.2066,0.2112,0.21,0.2131,0.2283,0.2393,0.2605,0.2742,0.2931,0.3077,0.3045,0.2874,0.3011,0.2729,0.2698,0.3053,0.2941,0.284,0.284,0.284,0.284,0.284,0.284,0.2049,0.2033,0.203,0.1952,0.1931,0.1892,0.1894,0.1876,0.1957,0.2029,0.2144,0.23,0.2641,0.284,0.2864,0.28,0.2641,0.2496,0.2599,0.2835,0.2861,0.2885,0.2775,0.264,0.2639,0.2058,0.2054,0.2051]},{"header":{"parameterUnit":"m.s-1","parameterCategory":2,"la1":30.2991,"la2":30.254,"lo1":-89.0895,"lo2":-89.0444,"dy":0.0017,"dx":0.0017,"nx":28,"ny":28,"refTime":"2024-06-27T03:00:00:Z","depth":"0","parameterNumber":3,"parameterNumberName":"V-component_of_CURRENTS"},"data":[0,0,0,0,0,0,0,0,0,0,0,0,0,0,0,0,0,0,0,0,0,0,0,0,0,0,0,0,0,0,0,0,0,0,0,0,0,0,0,0,0,0,0,0,0,0,0,0,0,0,0,0,0,0,0,0,0,0,0.0249,0.0249,0,0.02,0.02,0.0199,0.0125,0.0124,0.0123,0.0122,-0.0006,-0.0009,-0.0011,0,0,0,0,0,0,0,0,0,0,0,0,0,0.0283,0.0282,0.0249,0.0249,0.0249,0.0201,0.02,0.0199,0.0126,0.0124,0.0123,0.0122,-0.0005,-0.0008,-0.0011,0,0,0,0,0,0,0,0,0,0,0,0,0,0.0252,0.0282,0.0249,0.0208,0.0205,0.0201,0.02,0.0198,0.0126,0.0124,0.0123,0.0121,-0.0004,-0.0008,-0.0012,-0.0003,0,0,-0.0023,-0.0024,0,0,0,0,0,0,0,0,0.0254,0.025,0.0215,0.0211,0.0207,0.017,0.0164,0.0128,0.0126,0.0153,0.0122,0.0121,0.0048,0.004,0.0032,-0.0009,-0.0015,-0.0023,-0.0025,-0.0027,-0.0028,0,0,0,0,0,0,0,0.0256,0.0252,0.0227,0.0215,0.021,0.0194,0.0187,0.0157,0.0106,0.015,0.0146,0.0145,0.0045,0.0035,0.0028,-0.0017,-0.0023,-0.0026,-0.0029,-0.003,-0.0048,-0.0046,0,0,0,0,0,0,0.0269,0.0254,0.0229,0.0226,0.023,0.0195,0.0187,0.0181,0.0108,0.0097,0.0147,0.0142,0.0042,0.0032,0.0023,0.0049,-0.0027,-0.003,-0.0033,-0.0049,-0.0047,-0.0045,0,0,0,0,0,0,0.027,0.0267,0.0231,0.0241,0.0236,0.0196,0.0189,0.0181,0.0169,0.0107,0.0093,0.0144,0.0041,0.0028,0.0012,0.0043,-0.0032,-0.0035,-0.0051,-0.0049,-0.0046,0.0088,0,0,0,0,0,0,0.0271,0.0268,0.0276,0.0242,0.0236,0.0242,0.0191,0.0181,0.0173,0.0166,0.01,0.0086,0.0039,0.0018,0.0008,0.0036,-0.0038,-0.0054,-0.005,-0.0047,0.0082,0.0095,0.0107,0,0,0,0,0,0.0272,0.0299,0.0277,0.0274,0.0246,0.0244,0.024,0.0204,0.0175,0.0184,0.0142,0.0088,0.0031,0.0017,0.0005,0.0032,-0.0055,-0.0051,-0.0047,0.0076,0.0092,0.0106,0,0,0,0,0,0,0.033,0.0293,0.0268,0.0284,0.0269,0.0233,0.0242,0.0214,0.0189,0.0179,0.0111,0.0096,0.0091,0.0048,0.0034,0.0038,-0.0021,-0.0019,0.0077,0.0092,0.0104,0.0138,-0.0041,0,0,0,0,0,0.0345,0.0344,0.0312,0.0326,0.032,0.028,0.0277,0.0253,0.0224,0.0211,0.0172,0.013,0.01,0.0085,0.0052,0.0059,0.0017,0.0069,0.0081,0.0092,0.0113,0.0065,0.0075,-0.0032,-0.0032,-0.0032,0,0,0.0373,0.0352,0.0354,0.0337,0.0317,0.0329,0.0273,0.0276,0.0298,0.0202,0.0222,0.017,0.0111,0.0117,0.0111,0.0084,0.0106,0.0097,0.0107,0.0122,0.007,0.0081,0.009,-0.003,-0.003,-0.0031,0,0,0.0429,0.0407,0.0422,0.0411,0.0392,0.0376,0.0381,0.0355,0.0354,0.0365,0.0301,0.0277,0.024,0.0208,0.0183,0.0248,0.0171,0.0232,0.0326,0.0281,0.0289,0.0296,0.0279,0.0283,0.0242,0.0243,0.0243,0,0.0461,0.0473,0.0432,0.0443,0.0448,0.0402,0.043,0.0432,0.0411,0.0429,0.0391,0.0345,0.0288,0.0291,0.0312,0.0277,0.0244,0.0273,0.0297,0.0303,0.0307,0.0288,0.029,0.025,0.0249,0.0248,0.0248,0,0.0517,0.0532,0.0545,0.0537,0.0543,0.0562,0.0552,0.0575,0.0565,0.0563,0.0573,0.05,0.0471,0.045,0.04,0.0412,0.0377,0.0314,0.026,0.0326,0.0302,0.0302,0.026,0.0257,0.0255,0.0253,0,0,0.0571,0.0582,0.0586,0.0601,0.0593,0.0606,0.0658,0.0695,0.0739,0.072,0.0763,0.0712,0.0667,0.0636,0.0562,0.0528,0.0531,0.0449,0.0443,0.0437,0.0452,0.0431,0.0428,0.0464,0.0464,0.0464,0.043,0,0.0626,0.0678,0.0667,0.0727,0.0752,0.0738,0.0791,0.0818,0.0838,0.0875,0.0821,0.0824,0.074,0.0719,0.0676,0.0559,0.0535,0.0548,0.0385,0.0382,0.0357,0.0429,0.0423,0.0392,0.043,0.043,0.043,0,0.0674,0.0706,0.0776,0.0821,0.0831,0.0866,0.0938,0.0976,0.1019,0.1034,0.1032,0.0983,0.0947,0.0848,0.072,0.073,0.0616,0.0525,0.0519,0.0454,0.0361,0.0326,0.039,0.0226,0.0429,0.0429,0.0429,0,0.0722,0.0779,0.0843,0.0853,0.0901,0.0946,0.0976,0.1032,0.1087,0.1133,0.1168,0.1115,0.1078,0.0945,0.0768,0.0742,0.0613,0.0543,0.0428,0.0426,0.0368,0.036,0.0257,0.0459,0.0459,0.0459,0.0459,0,0.0773,0.0819,0.0875,0.0905,0.0988,0.0999,0.1095,0.113,0.1196,0.1273,0.124,0.1272,0.1095,0.1,0.0827,0.0645,0.0656,0.0474,0.042,0.0418,0.0415,0.0224,0.0149,0.0458,0.0458,0.0458,0.0459,0,0.0798,0.0837,0.0905,0.098,0.1007,0.1061,0.1151,0.1228,0.1284,0.1379,0.1398,0.1388,0.1283,0.1103,0.0885,0.0725,0.0461,0.0468,0.0498,0.045,0.0203,0.0137,0.002,-0.004,0.0364,0.0364,0.0363,0,0.081,0.0852,0.0946,0.0995,0.103,0.1114,0.1182,0.126,0.1354,0.1451,0.1507,0.1458,0.1452,0.1158,0.0867,0.0604,0.044,0.0412,0.0361,0.0219,0.0104,0.0066,0.0022,0.0344,0.0343,0.0343,0.0342,0,0.0829,0.0865,0.0924,0.1027,0.1107,0.1205,0.1315,0.1402,0.151,0.1601,0.1691,0.1696,0.1457,0.1205,0.0856,0.0654,0.0326,0.0393,0.0223,0.0082,0.0056,-0.0037,0.0353,0.0337,0.0338,0.0338,0.0339,0.0339,0.0837,0.0881,0.0967,0.1058,0.1156,0.1296,0.1392,0.1514,0.1656,0.1791,0.18,0.1809,0.1483,0.1024,0.0754,0.0252,0.028,0.0088,0.0024,0.0002,-0.0065,0.0342,0.0272,0.0272,0.0272,0.0272,0.0272,0,0.0864,0.0919,0.0996,0.1126,0.1236,0.1293,0.1483,0.159,0.175,0.184,0.191,0.1754,0.1332,0.0896,0.0263,-0.0067,-0.0171,-0.0252,-0.0325,-0.0352,-0.0021,-0.0034,-0.0146,-0.0146,-0.0146,-0.0145,-0.0145,-0.0145,0.0889,0.0962,0.1002,0.1172,0.1268,0.1443,0.156,0.1697,0.1807,0.19,0.1894,0.1911,0.164,0.0492,-0.025,-0.0421,-0.0635,-0.0675,-0.0773,-0.0583,-0.0557,-0.0532,-0.0564,-0.0786,-0.0786,-0.1072,-0.1076,-0.1078]}],[{"header":{"parameterUnit":"m.s-1","parameterCategory":2,"la1":30.2991,"la2":30.254,"lo1":-89.0895,"lo2":-89.0444,"dy":0.0017,"dx":0.0017,"nx":28,"ny":28,"refTime":"2024-06-27T03:00:00:Z","depth":"2","parameterNumber":2,"parameterNumberName":"U-component_of_CURRENTS"},"data":[0,0,0,0,0,0,0,0,0,0,0,0,0,0,0,0,0,0,0,0,0,0,0,0,0,0,0,0,0,0,0,0,0,0,0,0,0,0,0,0,0,0,0,0,0,0,0,0,0,0,0,0,0,0,0,0,0,0,0.1995,0.1996,0,0.207,0.2071,0.2071,0.2136,0.2137,0.2138,0.2139,0.2171,0.2171,0.2171,0,0,0,0,0,0,0,0,0,0,0,0,0,0.1887,0.1888,0.1995,0.1996,0.1997,0.207,0.2071,0.2072,0.2136,0.2137,0.2138,0.2139,0.2171,0.2171,0.2171,0,0,0,0,0,0,0,0,0,0,0,0,0,0.1943,0.1889,0.1995,0.204,0.2044,0.207,0.2071,0.2072,0.2136,0.2137,0.2139,0.214,0.2171,0.2171,0.2171,0.2145,0,0,0.2171,0.2171,0,0,0,0,0,0,0,0,0.194,0.1947,0.2032,0.2037,0.2042,0.2097,0.2045,0.2095,0.2136,0.2099,0.2139,0.2141,0.2142,0.2145,0.2154,0.2146,0.2148,0.2171,0.2171,0.2171,0.2171,0,0,0,0,0,0,0,0.1936,0.1944,0.2023,0.2033,0.2039,0.2049,0.2058,0.2054,0.211,0.2103,0.2108,0.2119,0.2145,0.2154,0.2155,0.2148,0.2171,0.2171,0.2171,0.2171,0.2175,0.2176,0,0,0,0,0,0,0.193,0.194,0.2021,0.2026,0.1995,0.205,0.206,0.2076,0.2112,0.2119,0.2117,0.2121,0.2153,0.2155,0.2157,0.2209,0.2171,0.2171,0.2171,0.2175,0.2176,0.2176,0,0,0,0,0,0,0.1927,0.1937,0.2018,0.1985,0.1997,0.205,0.2068,0.2077,0.2098,0.2123,0.213,0.213,0.2154,0.2157,0.2149,0.2207,0.2171,0.2171,0.2175,0.2175,0.2176,0.226,0,0,0,0,0,0,0.1924,0.1935,0.1949,0.1985,0.1999,0.203,0.2067,0.2078,0.2103,0.2109,0.2136,0.214,0.2156,0.2148,0.2149,0.2207,0.2172,0.2175,0.2175,0.2176,0.2257,0.2263,0.2268,0,0,0,0,0,0.192,0.1922,0.1949,0.196,0.2015,0.2029,0.2036,0.2078,0.2102,0.2103,0.2117,0.214,0.2151,0.2147,0.2148,0.2208,0.2175,0.2175,0.2176,0.2255,0.2262,0.2268,0,0,0,0,0,0,0.1903,0.1931,0.1961,0.198,0.2006,0.2041,0.2049,0.2076,0.209,0.2099,0.2122,0.2126,0.215,0.2142,0.2138,0.2204,0.2174,0.2174,0.2235,0.2241,0.2247,0.2309,0.2172,0,0,0,0,0,0.1902,0.1903,0.1941,0.1961,0.1969,0.2011,0.2025,0.2052,0.2069,0.2079,0.2106,0.2126,0.2148,0.2163,0.2169,0.2188,0.2199,0.2229,0.2234,0.2239,0.2287,0.2319,0.2333,0.2176,0.2176,0.2176,0,0,0.1912,0.192,0.1932,0.1956,0.1981,0.2011,0.2022,0.204,0.2089,0.2076,0.2136,0.2136,0.215,0.2187,0.22,0.2194,0.2281,0.224,0.2245,0.2291,0.2321,0.2337,0.2351,0.2176,0.2176,0.2176,0,0,0.1922,0.1929,0.194,0.1947,0.1973,0.2002,0.2007,0.2046,0.2084,0.2118,0.2138,0.2162,0.2189,0.2228,0.2248,0.2275,0.23,0.2283,0.2381,0.2411,0.2425,0.2438,0.2447,0.246,0.2298,0.2298,0.2298,0,0.1936,0.1958,0.1947,0.1956,0.1978,0.2001,0.2036,0.2072,0.2113,0.2159,0.2144,0.2226,0.2223,0.2307,0.2335,0.2298,0.2314,0.2361,0.2423,0.2436,0.2449,0.2454,0.2468,0.2302,0.2302,0.2302,0.2301,0,0.1949,0.1978,0.1976,0.2008,0.2026,0.2042,0.2092,0.213,0.2176,0.2234,0.2311,0.2308,0.237,0.2373,0.2376,0.2476,0.2457,0.2419,0.2419,0.2471,0.2471,0.2484,0.2308,0.2307,0.2306,0.2305,0,0,0.1963,0.1986,0.1993,0.2017,0.205,0.2063,0.2144,0.2231,0.2301,0.2354,0.2443,0.2505,0.2525,0.2548,0.2546,0.2593,0.2672,0.2571,0.257,0.2602,0.2744,0.2553,0.2548,0.2659,0.2662,0.2665,0.2702,0,0.1992,0.2021,0.2034,0.2092,0.2113,0.2151,0.2223,0.2302,0.2373,0.2451,0.2505,0.2573,0.2586,0.261,0.2669,0.2668,0.2716,0.2667,0.2671,0.2672,0.2514,0.256,0.2366,0.2369,0.2715,0.2717,0.2718,0,0.2011,0.2023,0.208,0.2134,0.215,0.2196,0.2303,0.2367,0.249,0.2541,0.2642,0.2679,0.2784,0.2742,0.2846,0.2823,0.2817,0.2808,0.2808,0.2623,0.2505,0.2375,0.238,0.274,0.2738,0.2736,0.2735,0,0.2004,0.206,0.2108,0.2117,0.2184,0.2236,0.2288,0.241,0.2467,0.2602,0.2649,0.2782,0.282,0.2877,0.2904,0.2888,0.2975,0.2918,0.2745,0.273,0.2564,0.2528,0.2989,0.2989,0.2989,0.2989,0.2989,0,0.2016,0.2045,0.2109,0.2113,0.2175,0.2233,0.232,0.2393,0.2496,0.2563,0.2693,0.2738,0.2864,0.2927,0.2939,0.289,0.3005,0.279,0.2739,0.2578,0.2544,0.2865,0.285,0.299,0.299,0.2989,0.2989,0,0.1999,0.2044,0.2067,0.2135,0.2165,0.2201,0.2289,0.2349,0.2465,0.2542,0.2586,0.2732,0.2793,0.2884,0.2946,0.2894,0.2876,0.2825,0.2619,0.254,0.2604,0.2593,0.263,0.2624,0.2619,0.2615,0.2611,0,0.1984,0.1998,0.2048,0.2057,0.2088,0.2152,0.22,0.2314,0.2366,0.2512,0.2529,0.264,0.2595,0.262,0.2598,0.2563,0.2736,0.2405,0.2315,0.2627,0.2574,0.2571,0.2567,0.2133,0.2126,0.212,0.2115,0,0.1921,0.1944,0.1955,0.1992,0.2031,0.2076,0.2146,0.2165,0.2301,0.2342,0.2369,0.2325,0.2302,0.2167,0.2152,0.2114,0.2391,0.227,0.2693,0.2221,0.2152,0.2101,0.2115,0.2062,0.2067,0.2071,0.2074,0.2076,0.1858,0.1858,0.1889,0.1924,0.195,0.1991,0.1992,0.2031,0.2051,0.2074,0.2079,0.1976,0.1919,0.1732,0.1697,0.1794,0.1888,0.1905,0.1928,0.1956,0.1859,0.178,0.1604,0.1606,0.1609,0.161,0.1612,0,0.179,0.1826,0.1827,0.186,0.184,0.1915,0.1952,0.1904,0.1844,0.1874,0.1767,0.1493,0.131,0.1413,0.1398,0.1328,0.1356,0.1374,0.1452,0.15,0.1545,0.1433,0.1063,0.1062,0.1061,0.1061,0,0,0.1759,0.1759,0.178,0.1753,0.1769,0.1753,0.175,0.1642,0.1625,0.1492,0.1462,0.1298,0.133,0.119,0.1117,0.1156,0.1347,0.1115,0.1541,0.1683,0.1728,0.1812,0.1686,0,0,0,0,0]},{"header":{"parameterUnit":"m.s-1","parameterCategory":2,"la1":30.2991,"la2":30.254,"lo1":-89.0895,"lo2":-89.0444,"dy":0.0017,"dx":0.0017,"nx":28,"ny":28,"refTime":"2024-06-27T03:00:00:Z","depth":"2","parameterNumber":3,"parameterNumberName":"V-component_of_CURRENTS"},"data":[0,0,0,0,0,0,0,0,0,0,0,0,0,0,0,0,0,0,0,0,0,0,0,0,0,0,0,0,0,0,0,0,0,0,0,0,0,0,0,0,0,0,0,0,0,0,0,0,0,0,0,0,0,0,0,0,0,0,0.0176,0.0176,0,0.0134,0.0133,0.0132,0.007,0.0069,0.0068,0.0067,-0.0063,-0.0066,-0.0068,0,0,0,0,0,0,0,0,0,0,0,0,0,0.02,0.0199,0.0176,0.0176,0.0175,0.0134,0.0133,0.0132,0.007,0.0069,0.0068,0.0067,-0.0062,-0.0065,-0.0069,0,0,0,0,0,0,0,0,0,0,0,0,0,0.0174,0.0199,0.0176,0.0142,0.0138,0.0134,0.0133,0.0132,0.007,0.0069,0.0068,0.0066,-0.0061,-0.0065,-0.0069,-0.0069,0,0,-0.0082,-0.0083,0,0,0,0,0,0,0,0,0.0175,0.0173,0.0147,0.0144,0.014,0.0108,0.0094,0.0061,0.007,0.0093,0.0067,0.0066,-0.0011,-0.0019,-0.0028,-0.0076,-0.0081,-0.0082,-0.0084,-0.0086,-0.0087,0,0,0,0,0,0,0,0.0177,0.0174,0.0156,0.0147,0.0143,0.0128,0.0122,0.0087,0.0044,0.0091,0.0087,0.0087,-0.0014,-0.0023,-0.0031,-0.0083,-0.0082,-0.0085,-0.0088,-0.0089,-0.0125,-0.0124,0,0,0,0,0,0,0.019,0.0176,0.0158,0.0155,0.0159,0.0128,0.0122,0.0117,0.0047,0.0036,0.0088,0.0085,-0.0016,-0.0026,-0.0036,-0.0027,-0.0086,-0.009,-0.0092,-0.0127,-0.0125,-0.0123,0,0,0,0,0,0,0.0191,0.0189,0.0159,0.0167,0.0163,0.013,0.0125,0.0117,0.011,0.0046,0.0033,0.0089,-0.0017,-0.0031,-0.0052,-0.0033,-0.0092,-0.0095,-0.0128,-0.0126,-0.0124,-0.0017,0,0,0,0,0,0,0.0191,0.0189,0.0197,0.0168,0.0163,0.0167,0.0126,0.0117,0.0113,0.0108,0.0042,0.0029,-0.0019,-0.0046,-0.0056,-0.004,-0.0099,-0.013,-0.0127,-0.0125,-0.0022,-0.0011,-0.0002,0,0,0,0,0,0.0192,0.0208,0.0197,0.0195,0.0172,0.0169,0.0165,0.0135,0.0115,0.0121,0.0081,0.0031,-0.0036,-0.0047,-0.0061,-0.0044,-0.0132,-0.0128,-0.0125,-0.0027,-0.0013,-0.0002,0,0,0,0,0,0,0.0231,0.0202,0.019,0.0198,0.019,0.0159,0.0164,0.0146,0.0121,0.0114,0.0048,0.0033,0.0021,-0.0021,-0.0032,-0.0045,-0.0091,-0.009,-0.0012,-0.0,0.001,0.0048,-0.0102,0,0,0,0,0,0.0243,0.0239,0.0219,0.0228,0.0225,0.0198,0.0195,0.0178,0.0152,0.0139,0.0103,0.0061,0.0026,0.0006,-0.0028,-0.0034,-0.009,-0.0031,-0.002,-0.0011,0.0012,-0.0067,-0.0062,-0.0112,-0.0112,-0.0112,0,0,0.0266,0.0246,0.0248,0.0236,0.0222,0.0234,0.0192,0.0195,0.0215,0.0129,0.0144,0.0096,0.0033,0.0027,0.0018,-0.0007,-0.0025,-0.0007,0.0001,0.002,-0.0063,-0.0058,-0.0054,-0.011,-0.011,-0.0111,0,0,0.0303,0.0287,0.0297,0.0289,0.0278,0.0269,0.0275,0.026,0.0261,0.0271,0.0211,0.0176,0.0142,0.0095,0.0065,0.0112,0.0032,0.0107,0.0187,0.011,0.0113,0.0115,0.0053,0.0048,0.0112,0.0112,0.0112,0,0.033,0.0339,0.0304,0.031,0.0317,0.029,0.0317,0.0318,0.0305,0.0325,0.0292,0.0235,0.0173,0.0148,0.017,0.0133,0.0089,0.0142,0.0122,0.0123,0.0123,0.0058,0.0052,0.0117,0.0117,0.0116,0.0116,0,0.0363,0.0381,0.0389,0.0386,0.0391,0.0411,0.0409,0.0435,0.0436,0.0438,0.0435,0.0348,0.0315,0.0285,0.0244,0.0225,0.0193,0.0141,0.0089,0.0134,0.0063,0.0055,0.0125,0.0123,0.0122,0.012,0,0,0.0402,0.0412,0.0419,0.044,0.0436,0.0449,0.0497,0.0539,0.0588,0.056,0.0584,0.0523,0.0484,0.0448,0.037,0.0307,0.0259,0.0248,0.0241,0.0186,0.0109,0.0114,0.0104,0.0206,0.0205,0.0205,0.0059,0,0.0447,0.049,0.0479,0.054,0.057,0.0566,0.0617,0.0649,0.0674,0.0694,0.0612,0.0603,0.0542,0.0517,0.0448,0.0299,0.0243,0.0305,0.0075,0.0069,0.0066,0.0096,0.0096,-0.003,0.005,0.0048,0.0047,0,0.0486,0.0514,0.0583,0.0637,0.0649,0.0688,0.0771,0.0807,0.0834,0.0848,0.0824,0.0763,0.0675,0.0597,0.0397,0.0445,0.0311,0.019,0.018,0.0146,0.0059,-0.0063,-0.005,0.0032,0.0033,0.0034,0.0035,0,0.0535,0.059,0.0656,0.0667,0.0721,0.0774,0.0812,0.0873,0.0926,0.0941,0.0964,0.086,0.0783,0.0616,0.0416,0.0401,0.0179,0.0104,-0.0016,-0.0018,-0.0081,-0.0086,-0.0027,-0.0027,-0.0027,-0.0026,-0.0026,0,0.0586,0.0636,0.0696,0.0727,0.0823,0.0837,0.0946,0.0984,0.1031,0.1087,0.1041,0.1019,0.0788,0.0645,0.0448,0.0213,0.0203,0.0017,-0.005,-0.0041,-0.0041,-0.0037,-0.0036,-0.0032,-0.0031,-0.003,-0.0029,0,0.0624,0.066,0.0732,0.0813,0.0847,0.0914,0.1013,0.1093,0.1146,0.1199,0.1204,0.1119,0.0915,0.0701,0.0393,0.0258,0.0024,-0.0054,-0.0007,-0.0063,-0.0137,-0.0129,-0.0228,-0.0229,-0.023,-0.023,-0.0231,0,0.0642,0.0687,0.0784,0.0836,0.088,0.0982,0.1061,0.1139,0.1218,0.1251,0.1263,0.1119,0.0962,0.0562,0.0301,-0.0017,-0.0033,-0.0156,-0.0188,-0.01,-0.0156,-0.0146,-0.0137,-0.0244,-0.0245,-0.0245,-0.0246,0,0.0668,0.0706,0.0761,0.0878,0.097,0.1078,0.1191,0.1266,0.135,0.1376,0.1348,0.1211,0.0846,0.0487,0.0134,-0.0056,-0.0102,-0.0176,-0.0123,-0.0168,-0.012,-0.0172,-0.0163,-0.025,-0.025,-0.0249,-0.0249,-0.0249,0.0678,0.0723,0.0807,0.0918,0.1024,0.1172,0.1268,0.134,0.1422,0.1429,0.1292,0.108,0.0718,0.0189,-0.0053,-0.0184,-0.0209,-0.0284,-0.0282,-0.0279,-0.0228,-0.0182,-0.0315,-0.0315,-0.0315,-0.0315,-0.0315,0,0.0698,0.0763,0.0847,0.099,0.1107,0.118,0.1354,0.1409,0.1462,0.1395,0.1249,0.0821,0.0405,0.0135,-0.009,-0.0299,-0.03,-0.0333,-0.0311,-0.0306,-0.0302,-0.0251,-0.0346,-0.0346,-0.0346,-0.0346,0,0,0.0712,0.079,0.0842,0.1035,0.1149,0.1326,0.1434,0.1445,0.144,0.1315,0.1179,0.0776,0.045,0.0223,-0.0072,-0.0148,-0.0151,-0.0161,-0.0121,-0.0055,-0.0047,-0.0271,-0.0187,0,0,0,0,0]}],[{"header":{"parameterUnit":"m.s-1","parameterCategory":2,"la1":30.2991,"la2":30.254,"lo1":-89.0895,"lo2":-89.0444,"dy":0.0017,"dx":0.0017,"nx":28,"ny":28,"refTime":"2024-06-27T03:00:00:Z","depth":"4","parameterNumber":2,"parameterNumberName":"U-component_of_CURRENTS"},"data":[0,0,0,0,0,0,0,0,0,0,0,0,0,0,0,0,0,0,0,0,0,0,0,0,0,0,0,0,0,0,0,0,0,0,0,0,0,0,0,0,0,0,0,0,0,0,0,0,0,0,0,0,0,0,0,0,0,0,-0.0328,-0.0328,0,-0.0324,-0.0324,-0.0324,-0.0344,-0.0344,-0.0345,-0.0346,-0.0411,-0.0412,-0.0413,0,0,0,0,0,0,0,0,0,0,0,0,0,-0.0307,-0.0307,-0.0328,-0.0328,-0.0328,-0.0325,-0.0324,-0.0324,-0.0343,-0.0344,-0.0345,-0.0346,-0.0411,-0.0412,-0.0413,0,0,0,0,0,0,0,0,0,0,0,0,0,-0.0309,-0.0307,-0.0328,-0.0339,-0.0341,-0.0325,-0.0324,-0.0324,-0.0343,-0.0344,-0.0346,-0.0347,-0.041,-0.0412,-0.0413,-0.0398,0,0,-0.0418,-0.0418,0,0,0,0,0,0,0,0,-0.0308,-0.0309,-0.0337,-0.0339,-0.034,-0.0338,-0.0341,-0.0353,-0.0343,-0.0339,-0.0346,-0.0347,-0.0394,-0.0397,-0.0389,-0.0402,-0.0404,-0.0418,-0.0419,-0.0419,-0.042,0,0,0,0,0,0,0,-0.0308,-0.0309,-0.0324,-0.0338,-0.0339,-0.033,-0.0331,-0.0342,-0.0359,-0.034,-0.0342,-0.0345,-0.0395,-0.0387,-0.0391,-0.0405,-0.0418,-0.0419,-0.042,-0.0421,-0.0531,-0.0533,0,0,0,0,0,0,-0.0315,-0.0309,-0.0324,-0.0324,-0.033,-0.033,-0.0331,-0.0335,-0.0358,-0.0362,-0.0344,-0.0346,-0.0384,-0.0389,-0.0393,-0.0469,-0.0419,-0.0421,-0.0422,-0.0529,-0.0531,-0.0533,0,0,0,0,0,0,-0.0314,-0.0316,-0.0324,-0.0318,-0.0319,-0.0329,-0.0333,-0.0335,-0.0366,-0.0361,-0.0367,-0.0379,-0.0385,-0.0391,-0.0441,-0.0469,-0.0421,-0.0423,-0.0526,-0.0529,-0.0532,-0.0563,0,0,0,0,0,0,-0.0314,-0.0316,-0.0327,-0.0319,-0.032,-0.0335,-0.0332,-0.0334,-0.0365,-0.0369,-0.0392,-0.0396,-0.0386,-0.0439,-0.0442,-0.047,-0.0424,-0.0524,-0.0528,-0.0531,-0.056,-0.0567,-0.0573,0,0,0,0,0,-0.0313,-0.032,-0.0327,-0.033,-0.0333,-0.0335,-0.0335,-0.0344,-0.0366,-0.0378,-0.0407,-0.0398,-0.0466,-0.0441,-0.0445,-0.0474,-0.0522,-0.0527,-0.0531,-0.0557,-0.0566,-0.0573,0,0,0,0,0,0,-0.0316,-0.0322,-0.0331,-0.034,-0.0349,-0.034,-0.0356,-0.0367,-0.0396,-0.0417,-0.0418,-0.0425,-0.0483,-0.048,-0.0453,-0.0521,-0.0495,-0.05,-0.0513,-0.0521,-0.0528,-0.0501,-0.0425,0,0,0,0,0,-0.0322,-0.0331,-0.0336,-0.0347,-0.0359,-0.0368,-0.0376,-0.0386,-0.0405,-0.042,-0.0438,-0.0467,-0.0496,-0.0512,-0.0534,-0.0564,-0.0529,-0.0589,-0.0596,-0.0602,-0.0586,-0.0565,-0.0567,-0.0548,-0.0548,-0.0548,0,0,-0.0326,-0.0332,-0.0338,-0.0349,-0.0361,-0.0361,-0.0377,-0.0403,-0.0408,-0.0424,-0.0458,-0.0499,-0.0515,-0.0553,-0.0578,-0.0556,-0.059,-0.0607,-0.0612,-0.0592,-0.0569,-0.057,-0.0571,-0.0551,-0.0551,-0.055,0,0,-0.0327,-0.0351,-0.0356,-0.0364,-0.0389,-0.0387,-0.0407,-0.0426,-0.0447,-0.048,-0.0506,-0.0558,-0.0593,-0.0604,-0.0614,-0.0672,-0.0635,-0.0702,-0.0701,-0.0682,-0.0682,-0.0681,-0.0633,-0.0628,-0.0694,-0.0694,-0.0694,0,-0.0334,-0.0334,-0.0359,-0.0363,-0.0369,-0.0403,-0.0405,-0.0421,-0.0455,-0.0475,-0.05,-0.0571,-0.0604,-0.063,-0.0667,-0.0683,-0.0661,-0.0664,-0.0686,-0.0685,-0.0684,-0.0634,-0.0628,-0.0696,-0.0696,-0.0696,-0.0696,0,-0.0332,-0.0335,-0.0345,-0.0353,-0.0364,-0.0379,-0.04,-0.0432,-0.0472,-0.0483,-0.0547,-0.0589,-0.0625,-0.0661,-0.0686,-0.0712,-0.0694,-0.0702,-0.0654,-0.0687,-0.0634,-0.0627,-0.0699,-0.0698,-0.0698,-0.0697,0,0,-0.034,-0.0339,-0.0343,-0.0339,-0.0364,-0.0368,-0.0393,-0.0412,-0.0436,-0.0484,-0.0505,-0.0585,-0.0627,-0.0644,-0.0688,-0.0687,-0.0683,-0.0704,-0.0702,-0.0634,-0.0622,-0.0547,-0.0532,-0.0699,-0.0698,-0.0698,-0.0584,0,-0.0332,-0.0319,-0.0324,-0.0315,-0.0316,-0.0347,-0.0355,-0.0385,-0.0432,-0.0463,-0.0515,-0.0555,-0.0611,-0.065,-0.0662,-0.0688,-0.0668,-0.0711,-0.0618,-0.0614,-0.0526,-0.0523,-0.0696,-0.0578,-0.0577,-0.0575,-0.0575,0,-0.0332,-0.032,-0.0312,-0.0292,-0.0298,-0.0303,-0.0338,-0.035,-0.0401,-0.0429,-0.0479,-0.0528,-0.0561,-0.0602,-0.0602,-0.0633,-0.0631,-0.0631,-0.0626,-0.0535,-0.0526,-0.0543,-0.0561,-0.0562,-0.0563,-0.0564,-0.0565,0,-0.0328,-0.0307,-0.0298,-0.0298,-0.0291,-0.0309,-0.0313,-0.0361,-0.0373,-0.0418,-0.0432,-0.0474,-0.0496,-0.0504,-0.053,-0.0574,-0.0496,-0.0544,-0.0453,-0.0446,-0.0532,-0.0533,-0.0511,-0.0511,-0.0511,-0.0512,-0.0512,0,-0.0318,-0.0304,-0.0302,-0.0301,-0.0298,-0.0306,-0.0324,-0.0337,-0.0361,-0.0343,-0.0424,-0.041,-0.0481,-0.0465,-0.0485,-0.0425,-0.0446,-0.0431,-0.0409,-0.055,-0.0555,-0.0525,-0.0529,-0.0507,-0.0508,-0.0509,-0.051,0,-0.0315,-0.0313,-0.0302,-0.0301,-0.0303,-0.0316,-0.0312,-0.0309,-0.0336,-0.0318,-0.0322,-0.0358,-0.0323,-0.0351,-0.0338,-0.0346,-0.0304,-0.0271,-0.0375,-0.0365,-0.0281,-0.0288,-0.0169,-0.0165,-0.0162,-0.0159,-0.0157,0,-0.0307,-0.0308,-0.031,-0.031,-0.0316,-0.0323,-0.0307,-0.0307,-0.0282,-0.0258,-0.0222,-0.0219,-0.0229,-0.013,-0.0181,-0.0151,-0.0167,-0.0139,-0.0265,-0.0253,-0.0245,-0.0257,-0.0267,-0.0152,-0.0152,-0.0151,-0.015,0,-0.0299,-0.0317,-0.0307,-0.0302,-0.0299,-0.0261,-0.0234,-0.0214,-0.0174,-0.0196,-0.0102,-0.0097,-0.0048,-0.0061,-0.0027,-0.0022,-0.0164,-0.0108,-0.0117,-0.0235,-0.0232,-0.0229,-0.0244,-0.0139,-0.0141,-0.0142,-0.0142,0,-0.0302,-0.0299,-0.0296,-0.0283,-0.026,-0.0194,-0.019,-0.0112,-0.0085,-0.0049,0.0001,0.0012,0.0004,0.0014,0.0052,0.0061,0.002,-0.001,-0.0025,-0.0038,-0.0059,-0.004,0.0155,0,0,0,0,0,-0.0301,-0.0281,-0.0261,-0.0227,-0.0187,-0.0162,-0.0116,-0.0103,-0.0072,0.0023,0.0015,0.0077,0.0107,0.0095,0.0122,0.0064,-0.0004,0.0092,-0.0052,-0.008,-0.0092,-0.0136,0,0,0,0,0,0,-0.0297,-0.0287,-0.0253,-0.0168,-0.0124,-0.0055,-0.0026,-0.0002,0.0048,0.0064,0.008,0.0091,0.0105,0.0108,0.0128,0.0125,0.0038,0.0096,0.0096,-0.0073,-0.0084,-0.0094,-0.0143,0,0,0,0,0]},{"header":{"parameterUnit":"m.s-1","parameterCategory":2,"la1":30.2991,"la2":30.254,"lo1":-89.0895,"lo2":-89.0444,"dy":0.0017,"dx":0.0017,"nx":28,"ny":28,"refTime":"2024-06-27T03:00:00:Z","depth":"4","parameterNumber":3,"parameterNumberName":"V-component_of_CURRENTS"},"data":[0,0,0,0,0,0,0,0,0,0,0,0,0,0,0,0,0,0,0,0,0,0,0,0,0,0,0,0,0,0,0,0,0,0,0,0,0,0,0,0,0,0,0,0,0,0,0,0,0,0,0,0,0,0,0,0,0,0,0.0088,0.0088,0,0.0053,0.0053,0.0052,0.0093,0.0095,0.0096,0.0098,0.0073,0.0071,0.0069,0,0,0,0,0,0,0,0,0,0,0,0,0,0.0122,0.0122,0.0088,0.0088,0.0088,0.0053,0.0053,0.0052,0.0093,0.0095,0.0097,0.0099,0.0074,0.0072,0.0069,0,0,0,0,0,0,0,0,0,0,0,0,0,0.0097,0.0122,0.0088,0.0106,0.0107,0.0054,0.0053,0.0052,0.0092,0.0095,0.0097,0.01,0.0075,0.0072,0.0068,-0.0005,0,0,0.0058,0.0057,0,0,0,0,0,0,0,0,0.0099,0.0096,0.0103,0.0104,0.0106,0.0082,0.0056,0.0034,0.0092,0.0095,0.0098,0.0101,0.0077,0.0073,0.0058,-0.0006,-0.0007,0.0058,0.0056,0.0054,0.0053,0,0,0,0,0,0,0,0.0101,0.0097,0.0072,0.0103,0.0104,0.0092,0.0092,0.0051,0.007,0.0095,0.0099,0.0098,0.0078,0.0061,0.0058,-0.0007,0.0058,0.0055,0.0053,0.0051,-0.0127,-0.013,0,0,0,0,0,0,0.011,0.0099,0.0073,0.0071,0.0111,0.009,0.0089,0.0085,0.0071,0.0072,0.0095,0.01,0.0065,0.0061,0.0057,-0.0007,0.0054,0.0051,0.0049,-0.0125,-0.0128,-0.0131,0,0,0,0,0,0,0.0111,0.0108,0.0075,0.0087,0.0082,0.0087,0.0082,0.0083,0.0082,0.0071,0.0072,0.0096,0.0067,0.0062,0.0005,-0.0008,0.005,0.0046,-0.0122,-0.0126,-0.0129,-0.0151,0,0,0,0,0,0,0.0112,0.0108,0.0105,0.0087,0.0082,0.0042,0.008,0.0081,0.0078,0.0083,0.007,0.007,0.0069,0.001,0.0002,-0.0012,0.0044,-0.0118,-0.0123,-0.0128,-0.0146,-0.0155,-0.0162,0,0,0,0,0,0.0113,0.0105,0.0105,0.0102,0.0078,0.004,0.0035,0.0047,0.0075,0.0059,0.0041,0.0072,-0.0027,0.0004,-0.0005,-0.0019,-0.0116,-0.0122,-0.0128,-0.0143,-0.0153,-0.0162,0,0,0,0,0,0,0.0117,0.0107,0.0108,0.0097,0.0068,0.0049,0.004,0.0044,0.0016,0.0024,0.0026,0.0021,-0.0033,-0.004,-0.0005,-0.0091,-0.0063,-0.0071,-0.0071,-0.0081,-0.0089,-0.0086,0.0041,0,0,0,0,0,0.0114,0.0109,0.0085,0.0073,0.0061,0.0048,0.0037,0.0034,0.001,0.0004,-0.0013,-0.0037,-0.0072,-0.0084,-0.0125,-0.0178,-0.0168,-0.0193,-0.0201,-0.0207,-0.0215,-0.0222,-0.0229,-0.0151,-0.0151,-0.0151,0,0,0.0113,0.0106,0.0104,0.0074,0.0058,0.0025,0.0047,0.0021,-0.0011,-0.0,-0.0053,-0.0073,-0.0098,-0.0156,-0.0178,-0.0155,-0.0228,-0.0215,-0.0219,-0.0224,-0.0229,-0.0236,-0.0242,-0.0155,-0.0154,-0.0154,0,0,0.0106,0.0099,0.0092,0.0062,0.0033,0.001,0.0004,-0.0033,-0.005,-0.0118,-0.0111,-0.0152,-0.0208,-0.0229,-0.0243,-0.0328,-0.0276,-0.0324,-0.0348,-0.0355,-0.036,-0.0364,-0.0358,-0.0362,-0.0317,-0.0317,-0.0317,0,0.0109,0.0091,0.0078,0.0054,0.0026,0.0005,-0.003,-0.0065,-0.012,-0.0148,-0.014,-0.0226,-0.0249,-0.0298,-0.0325,-0.0342,-0.0322,-0.03,-0.036,-0.0364,-0.0368,-0.0361,-0.0365,-0.0319,-0.0319,-0.0319,-0.0318,0,0.0087,0.0069,0.0057,0.002,-0.0019,-0.0056,-0.0108,-0.0159,-0.0184,-0.0211,-0.0279,-0.0318,-0.0356,-0.0371,-0.0374,-0.0413,-0.0382,-0.037,-0.0322,-0.0376,-0.0367,-0.037,-0.0322,-0.0321,-0.032,-0.032,0,0,0.0091,0.0056,0.0049,0.0023,-0.0043,-0.0081,-0.0155,-0.0227,-0.0271,-0.0319,-0.0362,-0.0432,-0.0424,-0.0443,-0.044,-0.045,-0.0471,-0.0415,-0.0415,-0.0385,-0.046,-0.0447,-0.0449,-0.0444,-0.0445,-0.0446,-0.0438,0,0.0075,0.0041,0.0013,-0.0052,-0.0087,-0.0147,-0.0213,-0.0283,-0.0344,-0.0398,-0.0421,-0.0461,-0.0454,-0.046,-0.0473,-0.0474,-0.0481,-0.0474,-0.0434,-0.0434,-0.0394,-0.0454,-0.0449,-0.044,-0.0441,-0.0441,-0.0442,0,0.0043,0.0027,-0.0023,-0.0093,-0.0115,-0.0167,-0.0287,-0.0351,-0.0432,-0.0463,-0.0495,-0.0496,-0.0521,-0.0504,-0.0518,-0.0499,-0.0489,-0.0485,-0.0484,-0.0467,-0.0428,-0.038,-0.0447,-0.0447,-0.0447,-0.0446,-0.0446,0,0.0031,-0.0016,-0.0053,-0.0079,-0.0156,-0.0211,-0.0271,-0.0376,-0.0425,-0.0495,-0.0503,-0.0535,-0.0535,-0.0532,-0.0524,-0.0511,-0.0527,-0.0509,-0.0489,-0.0487,-0.0485,-0.048,-0.0526,-0.0526,-0.0526,-0.0526,-0.0527,0,0.0,-0.0034,-0.006,-0.0087,-0.0157,-0.022,-0.031,-0.0383,-0.0449,-0.0483,-0.0516,-0.0515,-0.0539,-0.0539,-0.0531,-0.052,-0.053,-0.051,-0.0493,-0.0496,-0.0493,-0.0486,-0.0481,-0.0526,-0.0526,-0.0526,-0.0526,0,-0.0031,-0.0038,-0.0084,-0.014,-0.0169,-0.0229,-0.0313,-0.0372,-0.0427,-0.0468,-0.0468,-0.0499,-0.0505,-0.0527,-0.0537,-0.0527,-0.0523,-0.0515,-0.0517,-0.0498,-0.0474,-0.0471,-0.0497,-0.0496,-0.0496,-0.0496,-0.0496,0,-0.0048,-0.0069,-0.0113,-0.0142,-0.0175,-0.0248,-0.0303,-0.0369,-0.0405,-0.044,-0.0437,-0.0459,-0.0474,-0.0478,-0.0505,-0.0515,-0.051,-0.0506,-0.0505,-0.0494,-0.0475,-0.0473,-0.047,-0.0495,-0.0495,-0.0495,-0.0495,0,-0.0083,-0.009,-0.0112,-0.0159,-0.0211,-0.0267,-0.0329,-0.0333,-0.0389,-0.0409,-0.0403,-0.0414,-0.0433,-0.0459,-0.0486,-0.048,-0.0512,-0.0503,-0.0503,-0.0502,-0.0492,-0.0474,-0.0472,-0.0494,-0.0494,-0.0494,-0.0494,0,-0.0101,-0.0114,-0.013,-0.0174,-0.0228,-0.0278,-0.031,-0.033,-0.0357,-0.0374,-0.036,-0.0385,-0.0413,-0.0437,-0.0441,-0.0467,-0.0464,-0.0454,-0.0457,-0.0458,-0.0456,-0.0438,-0.0422,0,0,0,0,0,-0.0123,-0.0128,-0.0154,-0.0195,-0.0239,-0.0274,-0.0324,-0.034,-0.0348,-0.0343,-0.0355,-0.0365,-0.0391,-0.0398,-0.0421,-0.0439,-0.0475,-0.0465,-0.0467,-0.0489,-0.049,-0.0493,0,0,0,0,0,0,-0.0146,-0.0158,-0.0146,-0.0189,-0.0218,-0.0277,-0.0305,-0.0319,-0.031,-0.0315,-0.0331,-0.0345,-0.0378,-0.0374,-0.041,-0.0418,-0.0416,-0.0484,-0.0484,-0.0488,-0.0489,-0.049,-0.0494,0,0,0,0,0]}]]